[[{"header":{"parameterUnit":"m.s-1","parameterCategory":2,"la1":30.2991,"la2":30.254,"lo1":-89.0895,"lo2":-89.0444,"dy":0.0017,"dx":0.0017,"nx":28,"ny":28,"refTime":"2024-07-01T21:00:00:Z","depth":"0","parameterNumber":2,"parameterNumberName":"U-component_of_CURRENTS"},"data":[0,0,0,0,0,0,0,0,0,0,0,0,0,0,0,0,0,0,0,0,0,0,0,0,0,0,0,0,0,0,0,0,0,0,0,0,0,0,0,0,0,0,0,0,0,0,0,0,0,0,0,0,0,0,0,0,0,0,0.4149,0.415,0,0.4157,0.4157,0.4156,0.409,0.4088,0.4087,0.4086,0.4023,0.4023,0.4023,0,0,0,0,0,0,0,0,0,0,0,0,0,0.4058,0.4059,0.4149,0.415,0.415,0.4157,0.4157,0.4156,0.409,0.4088,0.4086,0.4085,0.4024,0.4023,0.4023,0,0,0,0,0,0,0,0,0,0,0,0,0,0.4079,0.406,0.4149,0.4122,0.412,0.4157,0.4157,0.4156,0.409,0.4088,0.4086,0.4084,0.4024,0.4023,0.4023,0.4059,0,0,0.4021,0.402,0,0,0,0,0,0,0,0,0.4078,0.4082,0.4125,0.4124,0.4122,0.4125,0.4102,0.4122,0.4091,0.4096,0.4086,0.4083,0.4056,0.4053,0.4052,0.4056,0.4054,0.4021,0.402,0.402,0.402,0,0,0,0,0,0,0,0.4077,0.4081,0.4147,0.4126,0.4124,0.4104,0.4104,0.4105,0.4081,0.4095,0.4092,0.4102,0.4054,0.4053,0.405,0.4053,0.4021,0.402,0.402,0.402,0.42,0.4205,0,0,0,0,0,0,0.4091,0.4081,0.4146,0.4147,0.4101,0.4107,0.4108,0.4122,0.4083,0.4077,0.4104,0.4099,0.4055,0.405,0.4047,0.4234,0.402,0.4019,0.4019,0.4195,0.4201,0.4207,0,0,0,0,0,0,0.4089,0.4097,0.4146,0.4118,0.4123,0.4112,0.4128,0.4123,0.4133,0.4091,0.4083,0.412,0.4053,0.4048,0.4091,0.4225,0.4019,0.4019,0.4189,0.4197,0.4204,0.4514,0,0,0,0,0,0,0.4086,0.4096,0.4126,0.4119,0.4126,0.4217,0.413,0.4125,0.4144,0.4138,0.4103,0.4094,0.4051,0.4093,0.409,0.422,0.4018,0.4182,0.4192,0.4201,0.4497,0.4531,0.4561,0,0,0,0,0,0.4083,0.4164,0.4127,0.4136,0.4162,0.4222,0.4225,0.4203,0.4148,0.4194,0.4162,0.4096,0.4152,0.4096,0.4092,0.4226,0.4178,0.419,0.4201,0.4483,0.4525,0.456,0,0,0,0,0,0,0.4152,0.4165,0.4124,0.4204,0.4222,0.4214,0.4265,0.4224,0.4233,0.4224,0.415,0.4144,0.4244,0.4181,0.412,0.4305,0.416,0.4171,0.4376,0.4414,0.4445,0.4488,0.4018,0,0,0,0,0,0.4176,0.4243,0.4227,0.4302,0.4307,0.4277,0.4297,0.4281,0.4282,0.4282,0.426,0.4249,0.429,0.4303,0.4319,0.4405,0.4392,0.449,0.4522,0.4549,0.4583,0.4691,0.4737,0.4245,0.4245,0.4244,0,0,0.423,0.4247,0.4284,0.4322,0.4324,0.4384,0.4286,0.4347,0.4416,0.4277,0.4375,0.4361,0.4337,0.4456,0.4495,0.4418,0.4687,0.4564,0.4588,0.4606,0.4708,0.4756,0.4799,0.4253,0.4251,0.425,0,0,0.4389,0.4373,0.4474,0.4483,0.4508,0.45,0.4521,0.4524,0.4544,0.4617,0.4567,0.4641,0.4649,0.4708,0.4722,0.4934,0.4856,0.4924,0.5121,0.5228,0.527,0.5306,0.5375,0.5415,0.4936,0.4936,0.4937,0,0.4452,0.4536,0.4519,0.4594,0.4611,0.4557,0.4636,0.4679,0.4707,0.4753,0.4688,0.4802,0.4792,0.497,0.5056,0.5018,0.5028,0.4981,0.5274,0.5309,0.5341,0.5402,0.5442,0.4953,0.4951,0.4949,0.4948,0,0.4643,0.4703,0.4766,0.4829,0.4866,0.4929,0.4947,0.5016,0.5006,0.5032,0.5183,0.5188,0.5246,0.5287,0.5237,0.548,0.5399,0.5308,0.5183,0.5411,0.5458,0.5495,0.4976,0.497,0.4965,0.4961,0,0,0.4763,0.4879,0.4887,0.4923,0.4966,0.5014,0.516,0.5263,0.5353,0.542,0.555,0.5685,0.5659,0.5677,0.5653,0.5765,0.6024,0.5647,0.5645,0.5727,0.6242,0.6055,0.6074,0.5975,0.5982,0.5988,0.6192,0,0.4891,0.507,0.5088,0.5229,0.5291,0.5283,0.5418,0.5513,0.5566,0.5692,0.5766,0.5868,0.5816,0.5843,0.5975,0.5988,0.613,0.5976,0.5998,0.5999,0.5815,0.6115,0.5826,0.5971,0.6226,0.6232,0.6236,0,0.5011,0.5114,0.528,0.5387,0.5411,0.5502,0.5635,0.5745,0.5918,0.5957,0.6088,0.6095,0.6303,0.6184,0.6416,0.6307,0.6331,0.6341,0.6346,0.6087,0.5881,0.578,0.6026,0.5831,0.6291,0.6287,0.6283,0,0.5048,0.5211,0.5346,0.5372,0.5521,0.5606,0.5684,0.5838,0.5915,0.6118,0.6168,0.6383,0.6447,0.6569,0.6593,0.6519,0.6797,0.6675,0.6553,0.6536,0.6254,0.6199,0.632,0.6887,0.6886,0.6886,0.6885,0,0.5123,0.5211,0.5375,0.5438,0.5584,0.566,0.5803,0.5922,0.6063,0.6156,0.6293,0.6379,0.6543,0.6673,0.6709,0.6754,0.6899,0.667,0.6616,0.635,0.6304,0.6078,0.5994,0.6893,0.6892,0.689,0.6889,0,0.513,0.5235,0.5392,0.5574,0.5606,0.5716,0.5814,0.5894,0.6051,0.6172,0.6231,0.6426,0.6582,0.6721,0.6902,0.6853,0.6733,0.6906,0.6566,0.6468,0.6094,0.6037,0.5946,0.5785,0.6819,0.6816,0.6813,0,0.5164,0.5256,0.5457,0.5503,0.5578,0.5694,0.5732,0.5879,0.5931,0.6158,0.6202,0.6414,0.6495,0.6713,0.6722,0.6811,0.6632,0.6551,0.6372,0.6118,0.6018,0.5827,0.5686,0.6138,0.613,0.6124,0.6119,0,0.5227,0.5305,0.5423,0.5493,0.5554,0.5603,0.5676,0.571,0.5861,0.5956,0.6086,0.6185,0.6381,0.6314,0.6417,0.643,0.6206,0.6415,0.6273,0.5631,0.5317,0.5115,0.5942,0.6063,0.6068,0.6072,0.6075,0.6078,0.5253,0.5325,0.5424,0.5457,0.5492,0.5466,0.543,0.548,0.5524,0.5571,0.5824,0.5837,0.5922,0.6004,0.5982,0.5735,0.5804,0.5533,0.5534,0.5401,0.51,0.5788,0.575,0.5753,0.5757,0.576,0.5762,0,0.5239,0.5274,0.5328,0.5337,0.526,0.5325,0.5311,0.5209,0.5141,0.5265,0.5322,0.5294,0.5214,0.5251,0.5123,0.4908,0.4729,0.4762,0.446,0.4403,0.5126,0.4943,0.4579,0.4579,0.458,0.458,0.458,0.458,0.5235,0.524,0.523,0.5071,0.5032,0.4853,0.4805,0.4695,0.4704,0.4539,0.4458,0.452,0.468,0.4649,0.4412,0.4312,0.401,0.3793,0.3856,0.4372,0.4443,0.4511,0.4321,0.3834,0.3833,0.2925,0.2918,0.2913]},{"header":{"parameterUnit":"m.s-1","parameterCategory":2,"la1":30.2991,"la2":30.254,"lo1":-89.0895,"lo2":-89.0444,"dy":0.0017,"dx":0.0017,"nx":28,"ny":28,"refTime":"2024-07-01T21:00:00:Z","depth":"0","parameterNumber":3,"parameterNumberName":"V-component_of_CURRENTS"},"data":[0,0,0,0,0,0,0,0,0,0,0,0,0,0,0,0,0,0,0,0,0,0,0,0,0,0,0,0,0,0,0,0,0,0,0,0,0,0,0,0,0,0,0,0,0,0,0,0,0,0,0,0,0,0,0,0,0,0,0.0294,0.0294,0,0.023,0.0229,0.0228,0.0147,0.0146,0.0145,0.0144,0.0045,0.0044,0.0042,0,0,0,0,0,0,0,0,0,0,0,0,0,0.0272,0.0273,0.0294,0.0294,0.0294,0.0231,0.0229,0.0228,0.0147,0.0146,0.0145,0.0144,0.0046,0.0044,0.0042,0,0,0,0,0,0,0,0,0,0,0,0,0,0.0248,0.0273,0.0294,0.0249,0.0244,0.0231,0.0229,0.0228,0.0147,0.0146,0.0144,0.0143,0.0047,0.0044,0.0042,0.0053,0,0,0.0033,0.0032,0,0,0,0,0,0,0,0,0.025,0.0249,0.0256,0.0252,0.0247,0.0199,0.0185,0.0169,0.0148,0.018,0.0144,0.0142,0.0097,0.009,0.0076,0.0048,0.0044,0.0033,0.0032,0.003,0.003,0,0,0,0,0,0,0,0.0252,0.0251,0.0265,0.0256,0.025,0.0206,0.0201,0.0181,0.0143,0.0177,0.0172,0.0172,0.0094,0.0079,0.0073,0.0043,0.0033,0.0031,0.0029,0.0028,0.0063,0.0065,0,0,0,0,0,0,0.0274,0.0253,0.0267,0.0263,0.025,0.0208,0.0203,0.0212,0.0144,0.0134,0.0173,0.0168,0.0084,0.0076,0.0069,0.0133,0.003,0.0028,0.0026,0.006,0.0063,0.0066,0,0,0,0,0,0,0.0274,0.0276,0.0269,0.0259,0.0256,0.0211,0.0222,0.0212,0.0198,0.0142,0.013,0.017,0.0083,0.0073,0.0067,0.0126,0.0027,0.0024,0.0057,0.0061,0.0064,0.0225,0,0,0,0,0,0,0.0274,0.0277,0.0296,0.0261,0.0257,0.029,0.0223,0.0212,0.0202,0.0195,0.0136,0.0125,0.0081,0.0072,0.0065,0.0121,0.0022,0.0054,0.0059,0.0063,0.0216,0.0234,0.0248,0,0,0,0,0,0.0273,0.0321,0.0298,0.03,0.0284,0.0293,0.0287,0.0246,0.0204,0.0222,0.0174,0.0127,0.0097,0.0071,0.0062,0.0119,0.0052,0.0057,0.0063,0.0209,0.023,0.0248,0,0,0,0,0,0,0.0339,0.0316,0.029,0.0332,0.0322,0.0281,0.03,0.0258,0.0232,0.0226,0.015,0.0138,0.0155,0.0116,0.009,0.0144,0.0071,0.0075,0.0185,0.0204,0.022,0.0254,0.002,0,0,0,0,0,0.0359,0.038,0.0352,0.039,0.0388,0.034,0.0337,0.0312,0.0283,0.0268,0.0224,0.0188,0.0173,0.017,0.0146,0.0176,0.0145,0.0209,0.0226,0.0239,0.0262,0.027,0.0289,0.0084,0.0084,0.0084,0,0,0.0401,0.0389,0.0404,0.0404,0.0389,0.0412,0.0335,0.0353,0.0372,0.0265,0.0281,0.0238,0.019,0.0221,0.0227,0.0197,0.0282,0.0246,0.0259,0.0274,0.0278,0.0298,0.0316,0.0088,0.0087,0.0087,0,0,0.0488,0.048,0.0518,0.0514,0.0505,0.0484,0.0493,0.0461,0.0448,0.046,0.0389,0.039,0.0356,0.0348,0.0335,0.0429,0.0358,0.0415,0.0534,0.0543,0.056,0.0574,0.0561,0.0573,0.0433,0.0434,0.0434,0,0.0534,0.057,0.0536,0.0566,0.0577,0.0521,0.0565,0.0556,0.0527,0.0536,0.0493,0.0474,0.0429,0.0474,0.0502,0.047,0.0444,0.0464,0.0565,0.0578,0.059,0.0573,0.0584,0.0442,0.0441,0.044,0.044,0,0.0631,0.0662,0.0693,0.0704,0.0719,0.0755,0.0735,0.075,0.0722,0.0706,0.0738,0.0686,0.0679,0.0669,0.061,0.0683,0.0626,0.0576,0.0518,0.0621,0.0596,0.0605,0.0454,0.0451,0.0449,0.0447,0,0,0.0718,0.0751,0.0759,0.0788,0.0791,0.0821,0.0866,0.0894,0.0942,0.0918,0.0983,0.0952,0.0919,0.0902,0.084,0.0848,0.0904,0.0757,0.0753,0.0748,0.0906,0.0814,0.0813,0.0862,0.0865,0.0867,0.0853,0,0.0797,0.0883,0.0874,0.0968,0.1013,0.0988,0.1046,0.1068,0.1071,0.1126,0.1092,0.1129,0.1009,0.1026,0.1015,0.0942,0.0935,0.0911,0.0803,0.08,0.0709,0.0824,0.0766,0.0745,0.0861,0.0862,0.0863,0,0.0879,0.0927,0.1026,0.1103,0.1123,0.1177,0.1257,0.1299,0.1349,0.1359,0.1379,0.1341,0.1366,0.1248,0.1183,0.1169,0.1052,0.0978,0.0975,0.0842,0.0725,0.066,0.0755,0.0484,0.0876,0.0875,0.0874,0,0.0948,0.1032,0.1117,0.1138,0.1218,0.1273,0.1321,0.1379,0.144,0.1517,0.1587,0.1568,0.1611,0.1475,0.1316,0.1253,0.1237,0.1128,0.0931,0.0922,0.083,0.0809,0.0657,0.1075,0.1075,0.1076,0.1076,0,0.1026,0.1096,0.1163,0.1213,0.1346,0.1367,0.1498,0.1549,0.164,0.1759,0.1718,0.1832,0.1673,0.1631,0.1419,0.123,0.1315,0.0983,0.093,0.0882,0.0866,0.0587,0.046,0.1075,0.1075,0.1075,0.1075,0,0.1091,0.1124,0.1235,0.1338,0.1382,0.1481,0.1608,0.1699,0.1783,0.1945,0.199,0.2063,0.2028,0.1825,0.1656,0.1397,0.1038,0.1095,0.1042,0.0982,0.0487,0.0373,0.0185,0.0076,0.0866,0.0864,0.0862,0,0.1135,0.1197,0.1327,0.1399,0.1452,0.1579,0.1671,0.1768,0.1872,0.2096,0.2203,0.2258,0.2328,0.2052,0.1633,0.1266,0.1015,0.0919,0.0775,0.0484,0.0318,0.0224,0.0141,0.0717,0.0714,0.0711,0.071,0,0.1228,0.1266,0.1357,0.149,0.16,0.1726,0.1872,0.1986,0.2129,0.2317,0.257,0.2667,0.2416,0.2095,0.158,0.1273,0.071,0.0854,0.0587,0.023,0.0089,-0.0049,0.0683,0.0689,0.0691,0.0693,0.0694,0.0695,0.1291,0.1368,0.1464,0.1593,0.1718,0.1876,0.201,0.2195,0.2439,0.2752,0.2813,0.3011,0.2445,0.1769,0.1367,0.0494,0.0545,0.0191,0.0091,0.0033,-0.0116,0.0557,0.0474,0.0474,0.0475,0.0476,0.0476,0,0.1351,0.1426,0.1552,0.1706,0.1837,0.1894,0.2139,0.231,0.264,0.2933,0.3162,0.2932,0.2267,0.154,0.0392,-0.0164,-0.0358,-0.0469,-0.0616,-0.0654,-0.003,-0.0086,-0.0335,-0.0335,-0.0335,-0.0335,-0.0334,-0.0334,0.1381,0.1491,0.155,0.1766,0.188,0.209,0.2246,0.2564,0.2825,0.3178,0.3274,0.3283,0.2605,0.0712,-0.0582,-0.086,-0.1169,-0.1272,-0.1396,-0.1004,-0.0951,-0.09,-0.0985,-0.1418,-0.1419,-0.1991,-0.1997,-0.2002]}],[{"header":{"parameterUnit":"m.s-1","parameterCategory":2,"la1":30.2991,"la2":30.254,"lo1":-89.0895,"lo2":-89.0444,"dy":0.0017,"dx":0.0017,"nx":28,"ny":28,"refTime":"2024-07-01T21:00:00:Z","depth":"2","parameterNumber":2,"parameterNumberName":"U-component_of_CURRENTS"},"data":[0,0,0,0,0,0,0,0,0,0,0,0,0,0,0,0,0,0,0,0,0,0,0,0,0,0,0,0,0,0,0,0,0,0,0,0,0,0,0,0,0,0,0,0,0,0,0,0,0,0,0,0,0,0,0,0,0,0,0.3234,0.3235,0,0.3279,0.3279,0.3279,0.3249,0.3249,0.3248,0.3247,0.3259,0.326,0.3261,0,0,0,0,0,0,0,0,0,0,0,0,0,0.3178,0.3178,0.3234,0.3235,0.3236,0.3279,0.3279,0.3279,0.325,0.3248,0.3247,0.3246,0.3258,0.326,0.3261,0,0,0,0,0,0,0,0,0,0,0,0,0,0.3206,0.3179,0.3234,0.323,0.323,0.3279,0.3279,0.3279,0.325,0.3248,0.3247,0.3246,0.3258,0.326,0.3262,0.3302,0,0,0.3267,0.3268,0,0,0,0,0,0,0,0,0.3204,0.3208,0.3229,0.323,0.3231,0.3261,0.3264,0.3287,0.325,0.3238,0.3247,0.3245,0.3261,0.3262,0.3268,0.3302,0.3303,0.3267,0.3268,0.3269,0.327,0,0,0,0,0,0,0,0.3202,0.3206,0.3247,0.3231,0.3231,0.3245,0.3246,0.3268,0.3253,0.3239,0.3238,0.325,0.326,0.3266,0.3268,0.3303,0.3267,0.3269,0.327,0.3271,0.3427,0.343,0,0,0,0,0,0,0.3205,0.3204,0.3246,0.3249,0.3219,0.3247,0.3248,0.3249,0.3253,0.3254,0.3251,0.3249,0.3264,0.3266,0.3268,0.3404,0.3269,0.3271,0.3272,0.3424,0.3428,0.3431,0,0,0,0,0,0,0.3203,0.3207,0.3244,0.3232,0.3238,0.3249,0.3251,0.3251,0.328,0.3264,0.3263,0.3283,0.3263,0.3266,0.3298,0.3401,0.3272,0.3273,0.3421,0.3425,0.343,0.362,0,0,0,0,0,0,0.3201,0.3206,0.3222,0.3231,0.3239,0.3304,0.3253,0.3253,0.329,0.3287,0.3291,0.3289,0.3262,0.3295,0.33,0.3401,0.3275,0.3417,0.3423,0.3428,0.361,0.363,0.3648,0,0,0,0,0,0.3199,0.3238,0.3222,0.3228,0.3254,0.3307,0.3313,0.3312,0.3294,0.3328,0.331,0.329,0.3336,0.3299,0.3303,0.3408,0.3414,0.3421,0.3428,0.3601,0.3626,0.3648,0,0,0,0,0,0,0.3228,0.324,0.3222,0.3262,0.3292,0.3304,0.3347,0.3338,0.3354,0.3352,0.3317,0.3316,0.3394,0.3363,0.3323,0.3467,0.3378,0.3386,0.3508,0.3532,0.3551,0.3536,0.3276,0,0,0,0,0,0.3239,0.3285,0.328,0.3332,0.3337,0.3344,0.337,0.337,0.3381,0.3387,0.3385,0.339,0.3426,0.3443,0.3461,0.3532,0.3532,0.3603,0.3623,0.3639,0.3629,0.3735,0.3763,0.3454,0.3454,0.3454,0,0,0.3275,0.329,0.3318,0.3344,0.3362,0.3409,0.3357,0.3415,0.3463,0.3388,0.3457,0.3462,0.3458,0.354,0.3574,0.3528,0.3732,0.3648,0.3662,0.3643,0.3745,0.3775,0.3802,0.3459,0.3458,0.3457,0,0,0.3349,0.337,0.3401,0.344,0.3475,0.3494,0.3517,0.3535,0.3545,0.3613,0.3576,0.3635,0.3676,0.37,0.3717,0.3853,0.3833,0.3864,0.3954,0.406,0.4086,0.4109,0.4171,0.4198,0.3873,0.3873,0.3873,0,0.3387,0.3413,0.3429,0.3471,0.3509,0.3537,0.3573,0.3623,0.3656,0.3666,0.3662,0.3748,0.3767,0.3857,0.3906,0.3906,0.3926,0.3873,0.4088,0.411,0.4131,0.4188,0.4216,0.3883,0.3882,0.3881,0.388,0,0.3431,0.3495,0.3537,0.3593,0.3639,0.3708,0.3746,0.3789,0.3821,0.3859,0.3949,0.3976,0.403,0.4063,0.4031,0.4181,0.4137,0.4107,0.4034,0.4174,0.4225,0.425,0.3897,0.3894,0.3891,0.3888,0,0,0.3431,0.3536,0.356,0.3579,0.3704,0.3723,0.3835,0.3897,0.3965,0.4039,0.4099,0.4218,0.4244,0.426,0.4254,0.4325,0.4522,0.4277,0.4278,0.4345,0.4725,0.4531,0.4539,0.4529,0.4534,0.4538,0.471,0,0.346,0.3517,0.3589,0.3696,0.3716,0.3799,0.3907,0.3984,0.4075,0.4159,0.4214,0.4317,0.4326,0.4368,0.4462,0.4525,0.4591,0.4475,0.4569,0.4571,0.4389,0.4563,0.4211,0.4319,0.4734,0.4738,0.4741,0,0.3457,0.3494,0.3561,0.3682,0.37,0.38,0.3915,0.4018,0.4176,0.4237,0.4364,0.4431,0.4601,0.4543,0.4787,0.4713,0.4729,0.4741,0.4749,0.4508,0.4424,0.424,0.4348,0.4783,0.4779,0.4776,0.4773,0,0.3367,0.3481,0.3518,0.3569,0.3719,0.3766,0.3861,0.4038,0.4096,0.4303,0.44,0.4601,0.4692,0.4829,0.4926,0.4892,0.5093,0.5073,0.4888,0.4874,0.4556,0.4504,0.5165,0.5165,0.5164,0.5164,0.5163,0,0.3354,0.3389,0.3477,0.3522,0.3586,0.3701,0.3809,0.3956,0.4105,0.4214,0.446,0.4547,0.4762,0.4898,0.4979,0.504,0.5191,0.4928,0.4922,0.461,0.4563,0.4928,0.4898,0.517,0.5169,0.5168,0.5167,0,0.324,0.3337,0.3381,0.3511,0.3568,0.3598,0.3742,0.3776,0.404,0.418,0.4254,0.4524,0.4784,0.4948,0.512,0.5082,0.5166,0.5085,0.4677,0.4617,0.4865,0.4844,0.501,0.5005,0.5001,0.4997,0.4994,0,0.3191,0.3207,0.3332,0.3355,0.3427,0.3478,0.3511,0.3712,0.3766,0.4146,0.4182,0.4472,0.4653,0.4884,0.4864,0.4991,0.5057,0.4607,0.4475,0.4881,0.4859,0.4844,0.4828,0.4157,0.4147,0.4139,0.4133,0,0.305,0.3104,0.3111,0.3189,0.3232,0.3255,0.3348,0.3365,0.362,0.3827,0.4091,0.4287,0.4512,0.4459,0.4528,0.4528,0.4604,0.4443,0.5036,0.4215,0.4081,0.4057,0.407,0.4063,0.407,0.4075,0.4079,0.4082,0.2914,0.2897,0.2932,0.2989,0.3051,0.3083,0.3043,0.3133,0.3267,0.354,0.3774,0.3997,0.407,0.4058,0.3973,0.3897,0.4203,0.4023,0.4047,0.4079,0.3915,0.3776,0.3671,0.3675,0.3679,0.3682,0.3686,0,0.2691,0.2719,0.273,0.2793,0.2756,0.2915,0.2955,0.2863,0.2971,0.3237,0.3453,0.3289,0.3312,0.3449,0.3233,0.3212,0.3189,0.3086,0.3039,0.3111,0.3175,0.2963,0.2468,0.2464,0.246,0.2456,0,0,0.2584,0.2474,0.2517,0.2487,0.2575,0.251,0.2539,0.252,0.2631,0.2699,0.2827,0.312,0.3343,0.2842,0.2781,0.2599,0.283,0.25,0.3486,0.3504,0.3562,0.3733,0.349,0,0,0,0,0]},{"header":{"parameterUnit":"m.s-1","parameterCategory":2,"la1":30.2991,"la2":30.254,"lo1":-89.0895,"lo2":-89.0444,"dy":0.0017,"dx":0.0017,"nx":28,"ny":28,"refTime":"2024-07-01T21:00:00:Z","depth":"2","parameterNumber":3,"parameterNumberName":"V-component_of_CURRENTS"},"data":[0,0,0,0,0,0,0,0,0,0,0,0,0,0,0,0,0,0,0,0,0,0,0,0,0,0,0,0,0,0,0,0,0,0,0,0,0,0,0,0,0,0,0,0,0,0,0,0,0,0,0,0,0,0,0,0,0,0,0.0075,0.0075,0,0.0014,0.0013,0.0012,-0.0036,-0.0036,-0.0036,-0.0036,-0.0127,-0.0129,-0.0132,0,0,0,0,0,0,0,0,0,0,0,0,0,0.0087,0.0087,0.0075,0.0075,0.0074,0.0014,0.0013,0.0011,-0.0036,-0.0036,-0.0036,-0.0036,-0.0126,-0.0129,-0.0132,0,0,0,0,0,0,0,0,0,0,0,0,0,0.0055,0.0087,0.0075,0.0047,0.0044,0.0014,0.0013,0.0011,-0.0036,-0.0036,-0.0036,-0.0036,-0.0125,-0.0129,-0.0132,-0.0154,0,0,-0.0143,-0.0145,0,0,0,0,0,0,0,0,0.0057,0.0054,0.0051,0.0049,0.0046,0.0001,-0.0016,-0.0044,-0.0036,-0.001,-0.0036,-0.0036,-0.0084,-0.0091,-0.0109,-0.0158,-0.0162,-0.0144,-0.0146,-0.0147,-0.0148,0,0,0,0,0,0,0,0.0059,0.0056,0.0046,0.0051,0.0048,0.0016,0.0011,-0.0022,-0.005,-0.0012,-0.0015,-0.0014,-0.0086,-0.0105,-0.0111,-0.0163,-0.0143,-0.0147,-0.0149,-0.015,-0.0212,-0.0212,0,0,0,0,0,0,0.0079,0.0059,0.0048,0.0045,0.0056,0.0016,0.0011,0.0011,-0.0049,-0.0057,-0.0014,-0.0016,-0.0099,-0.0107,-0.0114,-0.0127,-0.0147,-0.0151,-0.0153,-0.0213,-0.0212,-0.0212,0,0,0,0,0,0,0.008,0.0079,0.0051,0.0054,0.0048,0.0017,0.0017,0.001,-0.0002,-0.0049,-0.0059,-0.0018,-0.0099,-0.0109,-0.014,-0.0131,-0.0152,-0.0156,-0.0214,-0.0213,-0.0212,-0.0162,0,0,0,0,0,0,0.008,0.008,0.008,0.0055,0.0049,0.0045,0.0018,0.0009,-0.0,-0.0003,-0.0056,-0.0065,-0.01,-0.0135,-0.0144,-0.0137,-0.0158,-0.0214,-0.0213,-0.0212,-0.0165,-0.016,-0.0156,0,0,0,0,0,0.0081,0.0089,0.008,0.0079,0.0053,0.0046,0.0039,0.0013,0.0,-0.0,-0.004,-0.0063,-0.0135,-0.0137,-0.0148,-0.0142,-0.0215,-0.0214,-0.0212,-0.0167,-0.0161,-0.0156,0,0,0,0,0,0,0.0093,0.0085,0.0075,0.0079,0.0069,0.004,0.0039,0.002,-0.0012,-0.0016,-0.0065,-0.0077,-0.01,-0.0126,-0.0128,-0.0155,-0.0175,-0.0176,-0.0136,-0.0132,-0.0127,-0.0116,-0.0161,0,0,0,0,0,0.0098,0.0103,0.0089,0.0094,0.0093,0.0066,0.0058,0.0044,0.0017,0.0002,-0.0033,-0.007,-0.0104,-0.0121,-0.0154,-0.0173,-0.0187,-0.0172,-0.0168,-0.0164,-0.0161,-0.0157,-0.0151,-0.0208,-0.0208,-0.0208,0,0,0.011,0.0101,0.0107,0.0097,0.0086,0.0098,0.006,0.006,0.0058,-0.0002,-0.0018,-0.0059,-0.0106,-0.0128,-0.014,-0.0149,-0.0159,-0.0163,-0.0159,-0.0158,-0.0155,-0.0149,-0.0144,-0.0207,-0.0207,-0.0208,0,0,0.0136,0.0126,0.014,0.0142,0.0135,0.0121,0.0127,0.0104,0.0082,0.0064,0.0018,-0.0011,-0.006,-0.0092,-0.0116,-0.0105,-0.0136,-0.0117,-0.0088,-0.0083,-0.0078,-0.0074,-0.0098,-0.0096,-0.0113,-0.0113,-0.0113,0,0.0149,0.017,0.0143,0.0162,0.0178,0.014,0.0171,0.0138,0.0106,0.009,0.0072,0.0005,-0.0038,-0.0068,-0.0075,-0.0094,-0.0109,-0.0105,-0.0077,-0.0073,-0.0069,-0.0094,-0.0093,-0.0111,-0.0111,-0.0111,-0.0112,0,0.0184,0.0213,0.0227,0.0241,0.0243,0.027,0.024,0.0221,0.0195,0.0165,0.0132,0.0072,0.0042,0.0013,-0.0037,-0.0042,-0.0068,-0.0071,-0.0088,-0.006,-0.0089,-0.0089,-0.0107,-0.0108,-0.0109,-0.0109,0,0,0.0225,0.0247,0.0264,0.0293,0.03,0.0311,0.0301,0.0287,0.029,0.0234,0.0236,0.0155,0.0126,0.0097,0.004,0.0015,0.0008,-0.0025,-0.0026,-0.0045,-0.0005,-0.0077,-0.0085,0.0009,0.001,0.001,-0.0039,0,0.0279,0.0331,0.0329,0.0402,0.0439,0.0411,0.0412,0.0384,0.0353,0.0337,0.0255,0.0242,0.0158,0.0153,0.0114,0.0063,0.0013,0.002,-0.0031,-0.0034,-0.0098,-0.0084,-0.0054,-0.01,-0.0039,-0.0039,-0.0039,0,0.0338,0.0371,0.0439,0.0494,0.0509,0.0531,0.0544,0.0543,0.0489,0.0467,0.0428,0.037,0.0328,0.0253,0.0174,0.0185,0.008,0.0014,0.0012,-0.0072,-0.0105,-0.0116,-0.0102,-0.0039,-0.0039,-0.0039,-0.0039,0,0.0394,0.0465,0.0521,0.0545,0.0579,0.0594,0.0608,0.058,0.0594,0.0561,0.0573,0.0509,0.0502,0.0395,0.0243,0.0226,0.0135,0.0116,-0.0069,-0.0076,-0.0069,-0.0077,0.0015,0.0015,0.0015,0.0015,0.0015,0,0.0469,0.0528,0.0552,0.0592,0.0661,0.0663,0.0726,0.071,0.072,0.0779,0.0657,0.0692,0.0535,0.0451,0.0297,0.0128,0.0192,-0.0068,-0.0089,-0.0055,-0.006,-0.0018,-0.0022,0.0013,0.0014,0.0014,0.0014,0,0.0524,0.0546,0.0617,0.0666,0.0689,0.0735,0.081,0.0863,0.085,0.0927,0.093,0.0853,0.0782,0.0568,0.0409,0.0215,0.0054,-0.0056,-0.0031,-0.0049,-0.0179,-0.0179,-0.0216,-0.0219,-0.0221,-0.0223,-0.0225,0,0.0547,0.0587,0.0664,0.0714,0.0742,0.0818,0.0887,0.0923,0.0997,0.1052,0.1106,0.1024,0.1015,0.0708,0.0374,0.0081,0.0023,-0.0157,-0.0198,-0.0184,-0.02,-0.0196,-0.0193,-0.017,-0.0171,-0.0172,-0.0173,0,0.0593,0.0614,0.0671,0.0779,0.0866,0.0977,0.108,0.1168,0.1252,0.1334,0.1455,0.1455,0.112,0.0841,0.0341,0.0131,-0.0092,-0.0189,-0.0137,-0.0131,-0.0148,-0.0162,-0.0158,-0.0181,-0.018,-0.0179,-0.0179,-0.0179,0.0617,0.0667,0.075,0.0852,0.0964,0.1139,0.1263,0.1416,0.1599,0.174,0.1715,0.1712,0.1288,0.0699,0.0292,-0.0161,-0.0141,-0.0307,-0.03,-0.0293,-0.0293,-0.0316,-0.0381,-0.0381,-0.0381,-0.0382,-0.0382,0,0.0664,0.0722,0.0823,0.0983,0.1139,0.1174,0.1397,0.1553,0.1822,0.1932,0.2019,0.164,0.1261,0.0796,0.0123,-0.0298,-0.0307,-0.0423,-0.0336,-0.0326,-0.0317,-0.0316,-0.0411,-0.0412,-0.0413,-0.0414,0,0,0.069,0.0807,0.0871,0.1116,0.1226,0.1448,0.1589,0.1828,0.1965,0.2113,0.2096,0.1963,0.1409,0.0907,0.0346,-0.0016,-0.007,-0.0093,-0.003,0.0149,0.0163,-0.0219,-0.0203,0,0,0,0,0]}],[{"header":{"parameterUnit":"m.s-1","parameterCategory":2,"la1":30.2991,"la2":30.254,"lo1":-89.0895,"lo2":-89.0444,"dy":0.0017,"dx":0.0017,"nx":28,"ny":28,"refTime":"2024-07-01T21:00:00:Z","depth":"4","parameterNumber":2,"parameterNumberName":"U-component_of_CURRENTS"},"data":[0,0,0,0,0,0,0,0,0,0,0,0,0,0,0,0,0,0,0,0,0,0,0,0,0,0,0,0,0,0,0,0,0,0,0,0,0,0,0,0,0,0,0,0,0,0,0,0,0,0,0,0,0,0,0,0,0,0,0.1763,0.1764,0,0.1868,0.1869,0.187,0.1933,0.1933,0.1934,0.1934,0.2017,0.2019,0.2021,0,0,0,0,0,0,0,0,0,0,0,0,0,0.1641,0.1643,0.1763,0.1764,0.1766,0.1867,0.1869,0.187,0.1933,0.1933,0.1934,0.1934,0.2017,0.2019,0.2021,0,0,0,0,0,0,0,0,0,0,0,0,0,0.1714,0.1643,0.1763,0.181,0.1815,0.1867,0.1869,0.187,0.1933,0.1933,0.1934,0.1934,0.2016,0.2019,0.2022,0.2028,0,0,0.203,0.2031,0,0,0,0,0,0,0,0,0.1709,0.1718,0.1802,0.1807,0.1813,0.1888,0.1856,0.1922,0.1933,0.1887,0.1934,0.1935,0.1972,0.1979,0.1997,0.2032,0.2035,0.203,0.2032,0.2033,0.2034,0,0,0,0,0,0,0,0.1704,0.1714,0.1804,0.1803,0.181,0.1834,0.1844,0.1869,0.1924,0.1891,0.1896,0.1909,0.1975,0.1994,0.1999,0.2036,0.203,0.2033,0.2035,0.2036,0.2187,0.219,0,0,0,0,0,0,0.1691,0.1709,0.18,0.1807,0.1762,0.1835,0.1847,0.1863,0.1925,0.1935,0.1908,0.1912,0.1989,0.1996,0.2002,0.2105,0.2033,0.2036,0.2038,0.2185,0.2188,0.219,0,0,0,0,0,0,0.1688,0.1699,0.1796,0.1761,0.1775,0.1837,0.1854,0.1865,0.1928,0.1938,0.1948,0.1965,0.1989,0.1998,0.2063,0.2105,0.2037,0.204,0.2182,0.2186,0.2189,0.2252,0,0,0,0,0,0,0.1684,0.1697,0.1722,0.176,0.1777,0.1857,0.1854,0.1866,0.1932,0.1939,0.1989,0.1995,0.199,0.2059,0.2066,0.2108,0.2042,0.2179,0.2184,0.2188,0.2247,0.2258,0.2266,0,0,0,0,0,0.168,0.1705,0.1723,0.1735,0.1803,0.1859,0.1871,0.1915,0.1935,0.1972,0.2007,0.1996,0.2092,0.2063,0.2071,0.2115,0.2177,0.2183,0.2188,0.2243,0.2255,0.2266,0,0,0,0,0,0,0.1675,0.1715,0.1735,0.1776,0.1829,0.1871,0.1921,0.1943,0.2002,0.2021,0.2026,0.2035,0.2118,0.2107,0.2076,0.2173,0.2133,0.214,0.2173,0.2184,0.2194,0.2211,0.2044,0,0,0,0,0,0.1683,0.171,0.1759,0.1798,0.1836,0.1888,0.1925,0.1953,0.1999,0.2029,0.2062,0.2098,0.2139,0.2155,0.2196,0.2237,0.2253,0.2272,0.2281,0.2289,0.231,0.237,0.2387,0.2208,0.2208,0.2207,0,0,0.1693,0.1719,0.1739,0.1799,0.1855,0.1907,0.1915,0.1988,0.2025,0.2026,0.2111,0.215,0.2166,0.2226,0.2259,0.2221,0.2349,0.2296,0.2302,0.2319,0.2377,0.2395,0.241,0.2211,0.2211,0.221,0,0,0.1709,0.1763,0.1789,0.1839,0.1916,0.1953,0.1984,0.2056,0.2094,0.2165,0.2183,0.2247,0.2303,0.2319,0.233,0.2416,0.2417,0.2434,0.2473,0.2531,0.2546,0.2559,0.2599,0.2616,0.2414,0.2414,0.2414,0,0.1725,0.1759,0.181,0.1854,0.1899,0.198,0.2025,0.2079,0.2156,0.2181,0.2206,0.2327,0.2346,0.2402,0.2438,0.2439,0.2471,0.2422,0.2543,0.2557,0.2569,0.2607,0.2624,0.2418,0.2417,0.2417,0.2416,0,0.1743,0.1797,0.1834,0.1907,0.1961,0.2029,0.2098,0.2158,0.2222,0.2263,0.237,0.242,0.2484,0.2501,0.2499,0.2595,0.259,0.2565,0.2509,0.2591,0.2625,0.2642,0.2423,0.2422,0.242,0.242,0,0,0.1718,0.1821,0.184,0.1877,0.1997,0.2035,0.2116,0.2192,0.2246,0.2348,0.2415,0.2514,0.2573,0.2593,0.2613,0.2658,0.2775,0.2658,0.2659,0.2691,0.291,0.2713,0.2712,0.2779,0.2782,0.2785,0.2896,0,0.173,0.1788,0.1845,0.1931,0.1979,0.2067,0.2133,0.2209,0.2294,0.2385,0.2464,0.2566,0.2597,0.2651,0.2713,0.2765,0.2825,0.2748,0.2833,0.2836,0.2645,0.2726,0.2796,0.2909,0.2913,0.2916,0.2918,0,0.1715,0.1765,0.1818,0.1928,0.1963,0.2033,0.2142,0.2211,0.2342,0.241,0.2532,0.2614,0.2732,0.2744,0.2899,0.2855,0.2912,0.294,0.2944,0.2752,0.267,0.2813,0.2948,0.2946,0.2943,0.2941,0.2939,0,0.1619,0.1744,0.1775,0.1816,0.195,0.2001,0.2102,0.2226,0.2288,0.2454,0.2528,0.268,0.2789,0.2881,0.298,0.2958,0.3128,0.3085,0.2963,0.2949,0.3064,0.3049,0.3211,0.3211,0.3211,0.321,0.321,0,0.1569,0.1617,0.1748,0.1769,0.1839,0.1969,0.2064,0.2162,0.2327,0.2409,0.2569,0.2665,0.2841,0.2952,0.3011,0.304,0.3163,0.2996,0.2972,0.3087,0.3073,0.3076,0.3059,0.3214,0.3213,0.3213,0.3212,0,0.1445,0.1526,0.1566,0.1719,0.1781,0.1831,0.2042,0.2114,0.2292,0.2406,0.2471,0.2695,0.2849,0.2975,0.3129,0.3065,0.3103,0.3088,0.3217,0.3195,0.2879,0.2864,0.2944,0.2938,0.2933,0.2929,0.2925,0,0.1379,0.1381,0.1495,0.1527,0.1612,0.174,0.1833,0.2055,0.2143,0.24,0.2442,0.2668,0.2794,0.286,0.3006,0.3081,0.3064,0.3038,0.2952,0.2886,0.2857,0.2849,0.2842,0.2917,0.2916,0.2915,0.2914,0,0.1254,0.1284,0.1318,0.1383,0.1474,0.1563,0.1742,0.1793,0.204,0.2214,0.2363,0.2464,0.2639,0.2767,0.2853,0.2899,0.3011,0.2985,0.2995,0.2914,0.2855,0.2829,0.2827,0.2896,0.2899,0.29,0.2901,0,0.1156,0.1132,0.1171,0.1229,0.132,0.1386,0.1496,0.166,0.1781,0.209,0.214,0.2395,0.2615,0.2677,0.275,0.2779,0.2745,0.2628,0.2656,0.2676,0.2537,0.2419,0.2323,0,0,0,0,0,0.1063,0.1027,0.1043,0.108,0.1172,0.1237,0.1431,0.1559,0.1806,0.1849,0.1996,0.215,0.23,0.2445,0.2429,0.2628,0.2738,0.2591,0.2611,0.28,0.282,0.268,0,0,0,0,0,0,0.098,0.0974,0.0978,0.0965,0.0981,0.1075,0.1189,0.136,0.142,0.1678,0.1798,0.1976,0.2182,0.2284,0.2373,0.2411,0.2368,0.2753,0.2746,0.2789,0.2807,0.2823,0.2686,0,0,0,0,0]},{"header":{"parameterUnit":"m.s-1","parameterCategory":2,"la1":30.2991,"la2":30.254,"lo1":-89.0895,"lo2":-89.0444,"dy":0.0017,"dx":0.0017,"nx":28,"ny":28,"refTime":"2024-07-01T21:00:00:Z","depth":"4","parameterNumber":3,"parameterNumberName":"V-component_of_CURRENTS"},"data":[0,0,0,0,0,0,0,0,0,0,0,0,0,0,0,0,0,0,0,0,0,0,0,0,0,0,0,0,0,0,0,0,0,0,0,0,0,0,0,0,0,0,0,0,0,0,0,0,0,0,0,0,0,0,0,0,0,0,0.0061,0.0061,0,0.0018,0.0017,0.0016,-0.0003,-0.0003,-0.0003,-0.0003,-0.0078,-0.008,-0.0082,0,0,0,0,0,0,0,0,0,0,0,0,0,0.0085,0.0085,0.0061,0.0061,0.0061,0.0018,0.0017,0.0016,-0.0003,-0.0003,-0.0003,-0.0002,-0.0077,-0.008,-0.0082,0,0,0,0,0,0,0,0,0,0,0,0,0,0.006,0.0085,0.0061,0.0047,0.0046,0.0018,0.0017,0.0016,-0.0003,-0.0003,-0.0003,-0.0002,-0.0076,-0.0079,-0.0083,-0.0111,0,0,-0.0093,-0.0094,0,0,0,0,0,0,0,0,0.0061,0.0058,0.005,0.0048,0.0047,0.0015,-0.0002,-0.0027,-0.0004,0.0013,-0.0003,-0.0002,-0.0048,-0.0054,-0.0066,-0.0114,-0.0118,-0.0093,-0.0095,-0.0097,-0.0098,0,0,0,0,0,0,0,0.0063,0.006,0.0042,0.0049,0.0047,0.0029,0.0026,-0.0007,-0.0022,0.0011,0.0011,0.0009,-0.005,-0.0062,-0.0068,-0.0119,-0.0093,-0.0096,-0.0098,-0.0099,-0.0188,-0.0188,0,0,0,0,0,0,0.0075,0.0062,0.0043,0.0041,0.0057,0.0029,0.0025,0.0023,-0.0021,-0.0026,0.0009,0.0008,-0.0057,-0.0064,-0.007,-0.0101,-0.0097,-0.01,-0.0102,-0.0187,-0.0188,-0.0188,0,0,0,0,0,0,0.0075,0.0073,0.0045,0.0052,0.0048,0.0028,0.0026,0.0022,0.0012,-0.0022,-0.0028,0.0003,-0.0057,-0.0066,-0.0102,-0.0104,-0.0101,-0.0104,-0.0187,-0.0188,-0.0188,-0.0166,0,0,0,0,0,0,0.0076,0.0074,0.007,0.0053,0.0048,0.0031,0.0025,0.0021,0.0011,0.001,-0.0029,-0.0036,-0.0057,-0.0097,-0.0105,-0.0109,-0.0107,-0.0187,-0.0187,-0.0188,-0.0167,-0.0166,-0.0166,0,0,0,0,0,0.0077,0.0073,0.007,0.0068,0.0046,0.0031,0.0026,0.0012,0.0011,0.0004,-0.0024,-0.0034,-0.0106,-0.01,-0.011,-0.0115,-0.0186,-0.0187,-0.0188,-0.0167,-0.0166,-0.0166,0,0,0,0,0,0,0.0075,0.007,0.0067,0.0059,0.0048,0.0028,0.0021,0.0013,-0.0014,-0.0014,-0.0046,-0.0055,-0.0088,-0.0105,-0.0097,-0.0142,-0.0146,-0.0148,-0.0126,-0.0126,-0.0125,-0.0104,-0.011,0,0,0,0,0,0.0076,0.0074,0.0064,0.0057,0.0055,0.0038,0.003,0.0023,0.0001,-0.0009,-0.0038,-0.0067,-0.01,-0.0115,-0.0147,-0.0174,-0.0195,-0.0181,-0.0181,-0.018,-0.0169,-0.0205,-0.0207,-0.0191,-0.0191,-0.0191,0,0,0.0076,0.007,0.007,0.0057,0.0048,0.0055,0.0033,0.0026,0.0026,-0.0015,-0.0032,-0.0071,-0.0108,-0.0139,-0.0154,-0.0152,-0.0199,-0.0181,-0.018,-0.0169,-0.0206,-0.0208,-0.0209,-0.0191,-0.0191,-0.0191,0,0,0.0085,0.0069,0.008,0.0076,0.0069,0.0059,0.0061,0.0043,0.0027,0.0004,-0.0026,-0.0065,-0.0109,-0.0138,-0.0158,-0.0174,-0.0199,-0.0183,-0.016,-0.0196,-0.0197,-0.0198,-0.024,-0.0245,-0.0178,-0.0178,-0.0178,0,0.0088,0.0104,0.0078,0.0091,0.0101,0.0068,0.0093,0.0065,0.0035,0.0023,0.0006,-0.0066,-0.0106,-0.014,-0.0149,-0.0172,-0.0197,-0.0159,-0.0194,-0.0196,-0.0198,-0.024,-0.0246,-0.0177,-0.0177,-0.0177,-0.0177,0,0.0117,0.013,0.0135,0.0149,0.0144,0.0157,0.0132,0.0115,0.0092,0.0067,0.0021,-0.0042,-0.0075,-0.0105,-0.0135,-0.0167,-0.0184,-0.0193,-0.0193,-0.0198,-0.0242,-0.0249,-0.0176,-0.0176,-0.0176,-0.0176,0,0,0.0149,0.0158,0.0167,0.019,0.0185,0.0191,0.018,0.0168,0.0169,0.0106,0.0097,0.0015,-0.0022,-0.0047,-0.0097,-0.0139,-0.0191,-0.0169,-0.0171,-0.0204,-0.0276,-0.0269,-0.0276,-0.0206,-0.0207,-0.0208,-0.0306,0,0.0195,0.0238,0.023,0.0278,0.0305,0.0277,0.0273,0.0247,0.0212,0.0183,0.0098,0.0067,0.0001,-0.0014,-0.0072,-0.0165,-0.0205,-0.0164,-0.027,-0.0273,-0.0262,-0.0282,-0.021,-0.0311,-0.0313,-0.0314,-0.0315,0,0.0246,0.0273,0.0333,0.0358,0.0368,0.0383,0.0389,0.0385,0.0321,0.0292,0.0233,0.0164,0.0075,0.0033,-0.0123,-0.0095,-0.0175,-0.0248,-0.0253,-0.0254,-0.0278,-0.0303,-0.0327,-0.0326,-0.0325,-0.0324,-0.0323,0,0.0304,0.0346,0.0402,0.0416,0.0434,0.045,0.0454,0.0418,0.0431,0.0367,0.0365,0.0238,0.0191,0.0058,-0.011,-0.0113,-0.0279,-0.0296,-0.0365,-0.0366,-0.0352,-0.0349,-0.038,-0.038,-0.038,-0.038,-0.0379,0,0.0361,0.0405,0.0434,0.0472,0.0537,0.0518,0.0572,0.0551,0.0534,0.0555,0.0435,0.0416,0.0198,0.0069,-0.0086,-0.0255,-0.026,-0.0363,-0.0389,-0.0343,-0.0338,-0.0357,-0.0353,-0.0383,-0.0383,-0.0382,-0.0381,0,0.0405,0.0429,0.0503,0.055,0.0571,0.0617,0.067,0.07,0.0673,0.0697,0.0686,0.0545,0.0373,0.0151,-0.0074,-0.0201,-0.0373,-0.042,-0.0361,-0.0383,-0.0445,-0.0439,-0.051,-0.0511,-0.0511,-0.0512,-0.0512,0,0.0422,0.0471,0.0575,0.0629,0.0655,0.0722,0.0771,0.0777,0.0812,0.078,0.0792,0.064,0.0519,0.0199,-0.0039,-0.0341,-0.0372,-0.0464,-0.0455,-0.0438,-0.0457,-0.045,-0.0444,-0.0513,-0.0513,-0.0513,-0.0513,0,0.0469,0.0518,0.0587,0.0706,0.0782,0.087,0.093,0.0971,0.0976,0.0954,0.0886,0.0703,0.0508,0.0224,-0.0013,-0.0225,-0.0418,-0.047,-0.047,-0.0463,-0.0442,-0.0459,-0.0452,-0.0515,-0.0514,-0.0514,-0.0514,0,0.0507,0.0567,0.0672,0.077,0.0879,0.0974,0.1006,0.1033,0.1068,0.1015,0.0991,0.0761,0.0615,0.0286,0.0068,-0.0151,-0.0201,-0.0267,-0.0279,-0.028,-0.0192,-0.0131,-0.0128,0,0,0,0,0,0.0532,0.0607,0.0714,0.0837,0.0945,0.1007,0.1094,0.1111,0.1118,0.1089,0.104,0.0855,0.0518,0.0365,0.0151,0.0057,-0.0242,-0.0201,-0.0324,-0.0523,-0.0522,-0.0457,0,0,0,0,0,0,0.0555,0.0661,0.0723,0.0874,0.0956,0.1083,0.1144,0.1149,0.1124,0.1087,0.0911,0.0805,0.0476,0.064,0.0147,0.0078,-0.0028,-0.0366,-0.0371,-0.0524,-0.0523,-0.0521,-0.0454,0,0,0,0,0]}]]